Location: Seven Kings
(51.5667°N, 0.1000°E)
Time: 03:35:04
(UTC+00:00)

Cosmos 1939 Rocket - Pass Details

Date: 29 October 2020
Orbit: 532 x 584 km, 97.4° (Epoch: 27 November)

Event Time Altitude Azimuth Distance (km) Brightness Sun altitude
Rises 18:31:16 0° 184° (S) 2,723 6.4 -18.2°
Reaches altitude 10° 18:33:30 10° 192° (SSW) 1,825 5.6 -18.5°
Maximum altitude 18:37:13 40° 262° (W) 819 4.2 -19.1°
Drops below altitude 10° 18:40:56 10° 333° (NNW) 1,815 5.8 -19.7°
Sets 18:43:09 0° 341° (NNW) 2,706 6.6 -20.0°
